| time (UTC) | temp F | wind direction | speed MPH | gust MPH | rain 1hr in | rain 24hr in | rain mn in | humidity % | barometer mb |
| 20260506202830 | 53 | 358 | 4.0 | 6.0 | 0.00 | 0.00 | 0.00 | 69 | 1014.1 |
| 20260506201831 | 53 | 358 | 3.0 | 3.0 | 0.00 | 0.00 | 0.00 | 66 | 1014.0 |
| 20260506200830 | 53 | 358 | 7.0 | 9.0 | 0.00 | 0.00 | 0.00 | 63 | 1013.9 |
| 20260506195831 | 53 | 111 | 5.0 | 9.0 | 0.00 | 0.00 | 0.00 | 63 | 1013.8 |
| 20260506194831 | 54 | 111 | 3.0 | 5.0 | 0.00 | 0.00 | 0.00 | 63 | 1013.6 |
| 20260506193831 | 54 | 111 | 6.0 | 9.0 | 0.00 | 0.00 | 0.00 | 62 | 1013.6 |
| 20260506192836 | 54 | 111 | 4.0 | 6.0 | 0.00 | 0.00 | 0.00 | 62 | 1013.5 |
| 20260506191855 | 54 | 288 | 5.0 | 10.0 | 0.00 | 0.00 | 0.00 | 61 | 1013.3 |
| 20260506190836 | 55 | 288 | 3.0 | 7.0 | 0.00 | 0.00 | 0.00 | 62 | 1013.2 |
| 20260506185831 | 55 | 288 | 5.0 | 8.0 | 0.00 | 0.00 | 0.00 | 62 | 1013.0 |
| 20260506184830 | 55 | 305 | 3.0 | 9.0 | 0.00 | 0.00 | 0.00 | 62 | 1012.9 |
| 20260506183851 | 56 | 298 | 10.0 | 12.0 | 0.00 | 0.00 | 0.00 | 61 | 1012.9 |
| 20260506182836 | 56 | 103 | 6.0 | 10.0 | 0.00 | 0.00 | 0.00 | 61 | 1012.7 |
| 20260506181831 | 57 | 102 | 4.0 | 5.0 | 0.00 | 0.00 | 0.00 | 60 | 1012.6 |
| 20260506180831 | 56 | 290 | 3.0 | 5.0 | 0.00 | 0.00 | 0.00 | 59 | 1012.5 |
| 20260506175831 | 56 | 73 | 6.0 | 6.0 | 0.00 | 0.00 | 0.00 | 60 | 1012.4 |
| 20260506174831 | 56 | 274 | 3.0 | 4.0 | 0.00 | 0.00 | 0.00 | 61 | 1012.2 |
| 20260506173836 | 56 | 128 | 4.0 | 9.0 | 0.00 | 0.00 | 0.00 | 61 | 1012.2 |
| 20260506172836 | 56 | 163 | 3.0 | 5.0 | 0.00 | 0.00 | 0.00 | 60 | 1012.0 |
| 20260506171851 | 56 | 105 | 3.0 | 5.0 | 0.00 | 0.00 | 0.00 | 59 | 1011.9 |
| 20260506170831 | 56 | 192 | 5.0 | 8.0 | 0.00 | 0.00 | 0.00 | 58 | 1011.9 |
| 20260506165830 | 56 | 113 | 8.0 | 12.0 | 0.00 | 0.00 | 0.00 | 56 | 1011.8 |
| 20260506164831 | 57 | 94 | 2.0 | 5.0 | 0.00 | 0.00 | 0.00 | 54 | 1011.7 |
| 20260506163831 | 57 | 167 | 2.0 | 7.0 | 0.00 | 0.00 | 0.00 | 54 | 1011.8 |
| 20260506162831 | 57 | 319 | 4.0 | 12.0 | 0.00 | 0.00 | 0.00 | 53 | 1011.7 |
| 20260506161831 | 57 | 274 | 5.0 | 6.0 | 0.00 | 0.00 | 0.00 | 52 | 1011.8 |
| 20260506160831 | 57 | 101 | 4.0 | 6.0 | 0.00 | 0.00 | 0.00 | 50 | 1011.6 |
| 20260506155831 | 58 | 95 | 6.0 | 7.0 | 0.00 | 0.00 | 0.00 | 47 | 1011.6 |
| 20260506154831 | 58 | 118 | 5.0 | 6.0 | 0.00 | 0.00 | 0.00 | 46 | 1011.7 |
| 20260506153831 | 58 | 113 | 3.0 | 7.0 | 0.00 | 0.00 | 0.00 | 46 | 1011.7 |
| 20260506152859 | 58 | 174 | 4.0 | 5.0 | 0.00 | 0.00 | 0.00 | 45 | 1011.7 |
| 20260506151836 | 58 | 102 | 6.0 | 8.0 | 0.00 | 0.00 | 0.00 | 44 | 1011.5 |
| 20260506150831 | 59 | 96 | 4.0 | 8.0 | 0.00 | 0.00 | 0.00 | 43 | 1011.5 |
| 20260506145831 | 59 | 110 | 6.0 | 13.0 | 0.00 | 0.00 | 0.00 | 44 | 1011.5 |
| 20260506144901 | 59 | 90 | 4.0 | 7.0 | 0.00 | 0.00 | 0.00 | 44 | 1011.4 |
| 20260506143916 | 59 | 96 | 6.0 | 7.0 | 0.00 | 0.00 | 0.00 | 43 | 1011.4 |
| 20260506142831 | 59 | 98 | 8.0 | 12.0 | 0.00 | 0.00 | 0.00 | 44 | 1011.4 |
| 20260506141831 | 60 | 99 | 4.0 | 7.0 | 0.00 | 0.00 | 0.00 | 44 | 1011.4 |
| 20260506140831 | 60 | 98 | 6.0 | 8.0 | 0.00 | 0.00 | 0.00 | 43 | 1011.4 |
| 20260506135831 | 60 | 168 | 5.0 | 10.0 | 0.00 | 0.00 | 0.00 | 44 | 1011.4 |
| 20260506134831 | 59 | 30 | 7.0 | 8.0 | 0.00 | 0.00 | 0.00 | 45 | 1011.4 |
| 20260506133831 | 59 | 172 | 6.0 | 14.0 | 0.00 | 0.00 | 0.00 | 46 | 1011.3 |
| 20260506132851 | 60 | 147 | 5.0 | 11.0 | 0.00 | 0.00 | 0.00 | 44 | 1011.3 |
| 20260506131831 | 60 | 114 | 4.0 | 14.0 | 0.00 | 0.00 | 0.00 | 45 | 1011.4 |
| 20260506130831 | 60 | 158 | 4.0 | 10.0 | 0.00 | 0.00 | 0.00 | 45 | 1011.2 |
| 20260506125831 | 61 | 111 | 4.0 | 10.0 | 0.00 | 0.00 | 0.00 | 46 | 1011.1 |
| 20260506124851 | 59 | 104 | 9.0 | 12.0 | 0.00 | 0.00 | 0.00 | 45 | 1011.2 |
| 20260506123851 | 60 | 140 | 8.0 | 12.0 | 0.00 | 0.00 | 0.00 | 45 | 1011.1 |
| 20260506122833 | 60 | 279 | 5.0 | 8.0 | 0.00 | 0.00 | 0.00 | 46 | 1011.1 |
| 20260506121832 | 60 | 125 | 9.0 | 14.0 | 0.00 | 0.00 | 0.00 | 43 | 1011.1 |
| 20260506120832 | 60 | 121 | 5.0 | 11.0 | 0.00 | 0.00 | 0.00 | 44 | 1011.1 |
| 20260506115832 | 60 | 156 | 9.0 | 14.0 | 0.00 | 0.00 | 0.00 | 44 | 1011.1 |
| 20260506114840 | 60 | 107 | 5.0 | 12.0 | 0.00 | 0.00 | 0.00 | 46 | 1011.1 |
| 20260506113831 | 59 | 100 | 8.0 | 14.0 | 0.00 | 0.00 | 0.00 | 47 | 1011.0 |
| 20260506112836 | 58 | 111 | 5.0 | 7.0 | 0.00 | 0.00 | 0.00 | 55 | 1011.0 |
| 20260506111831 | 59 | 108 | 3.0 | 11.0 | 0.00 | 0.00 | 0.00 | 54 | 1011.0 |
| 20260506110831 | 58 | 108 | 6.0 | 7.0 | 0.00 | 0.00 | 0.00 | 53 | 1011.0 |
| 20260506105952 | 59 | 290 | 5.0 | 10.0 | 0.00 | 0.00 | 0.00 | 52 | 1011.1 |
| 20260506104831 | 59 | 290 | 7.0 | 9.0 | 0.00 | 0.00 | 0.00 | 54 | 1011.0 |
| 20260506103832 | 58 | 276 | 5.0 | 7.0 | 0.00 | 0.00 | 0.00 | 51 | 1011.1 |
| 20260506102831 | 58 | 276 | 6.0 | 12.0 | 0.00 | 0.00 | 0.00 | 57 | 1011.0 |
| 20260506101832 | 58 | 99 | 6.0 | 13.0 | 0.00 | 0.00 | 0.00 | 63 | 1011.0 |
| 20260506100832 | 57 | 276 | 6.0 | 9.0 | 0.00 | 0.00 | 0.00 | 61 | 1010.9 |
| 20260506095831 | 57 | 93 | 8.0 | 9.0 | 0.00 | 0.00 | 0.00 | 62 | 1010.9 |
| 20260506094832 | 57 | 123 | 5.0 | 12.0 | 0.00 | 0.00 | 0.00 | 64 | 1010.9 |
| 20260506093836 | 57 | 289 | 3.0 | 9.0 | 0.00 | 0.00 | 0.00 | 66 | 1010.8 |
| 20260506092857 | 57 | 272 | 4.0 | 6.0 | 0.00 | 0.00 | 0.00 | 65 | 1010.8 |
| 20260506091852 | 58 | 108 | 5.0 | 8.0 | 0.00 | 0.00 | 0.00 | 63 | 1010.7 |
| 20260506090852 | 57 | 153 | 4.0 | 7.0 | 0.00 | 0.00 | 0.00 | 66 | 1010.7 |
| 20260506085832 | 57 | 121 | 10.0 | 13.0 | 0.00 | 0.00 | 0.00 | 65 | 1010.7 |
| 20260506084852 | 57 | 142 | 4.0 | 5.0 | 0.00 | 0.00 | 0.00 | 68 | 1010.6 |
| 20260506083851 | 56 | 323 | 8.0 | 11.0 | 0.00 | 0.00 | 0.00 | 68 | 1010.6 |
| 20260506082831 | 56 | 0 | 5.0 | 10.0 | 0.00 | 0.00 | 0.00 | 68 | 1010.6 |
| 20260506081832 | 57 | 335 | 5.0 | 11.0 | 0.00 | 0.00 | 0.00 | 68 | 1010.6 |
| 20260506080832 | 56 | 116 | 6.0 | 7.0 | 0.00 | 0.00 | 0.00 | 69 | 1010.6 |
| 20260506072832 | 54 | 178 | 7.0 | 12.0 | 0.00 | 0.00 | 0.00 | 73 | 1010.4 |
| 20260506071832 | 54 | 294 | 5.0 | 8.0 | 0.00 | 0.00 | 0.00 | 75 | 1010.4 |
| 20260506070832 | 54 | 294 | 7.0 | 12.0 | 0.00 | 0.00 | 0.00 | 76 | 1010.3 |
| 20260506061932 | 53 | 96 | 4.0 | 7.0 | 0.00 | 0.00 | 0.00 | 78 | 1010.1 |
| 20260506060834 | 52 | 96 | 5.0 | 7.0 | 0.00 | 0.00 | 0.00 | 78 | 1010.0 |
| 20260506050832 | 51 | 166 | 5.0 | 6.0 | 0.00 | 0.00 | 0.00 | 78 | 1010.1 |
| 20260506044832 | 51 | 187 | 5.0 | 8.0 | 0.00 | 0.00 | 0.00 | 79 | 1010.2 |
| 20260506043857 | 51 | 187 | 7.0 | 8.0 | 0.00 | 0.00 | 0.00 | 79 | 1010.2 |
| 20260506042832 | 51 | 187 | 4.0 | 7.0 | 0.00 | 0.00 | 0.00 | 80 | 1010.1 |
| 20260506041858 | 51 | 187 | 6.0 | 7.0 | 0.00 | 0.00 | 0.00 | 80 | 1010.2 |
| 20260506040832 | 51 | 270 | 4.0 | 7.0 | 0.00 | 0.00 | 0.00 | 80 | 1010.3 |
| 20260506035832 | 50 | 270 | 5.0 | 8.0 | 0.00 | 0.00 | 0.00 | 80 | 1010.3 |
| 20260506034912 | 50 | 303 | 5.0 | 8.0 | 0.00 | 0.00 | 0.00 | 80 | 1010.4 |
| 20260506033832 | 50 | 306 | 3.0 | 7.0 | 0.00 | 0.00 | 0.00 | 80 | 1010.4 |
| 20260506032832 | 50 | 99 | 4.0 | 7.0 | 0.00 | 0.00 | 0.00 | 80 | 1010.4 |
| 20260506031833 | 50 | 346 | 5.0 | 8.0 | 0.00 | 0.00 | 0.00 | 80 | 1010.5 |
| 20260506030832 | 50 | 172 | 5.0 | 6.0 | 0.00 | 0.00 | 0.00 | 80 | 1010.5 |
| 20260506025832 | 50 | 289 | 3.0 | 10.0 | 0.00 | 0.00 | 0.00 | 80 | 1010.6 |
| 20260506024832 | 50 | 134 | 6.0 | 9.0 | 0.00 | 0.00 | 0.00 | 80 | 1010.6 |
| 20260506023838 | 50 | 134 | 5.0 | 6.0 | 0.00 | 0.00 | 0.00 | 80 | 1010.6 |
| 20260506022832 | 50 | 134 | 5.0 | 7.0 | 0.00 | 0.00 | 0.00 | 80 | 1010.7 |
| 20260506021837 | 50 | 134 | 7.0 | 8.0 | 0.00 | 0.00 | 0.00 | 80 | 1010.7 |
| 20260506020832 | 50 | 134 | 5.0 | 6.0 | 0.00 | 0.00 | 0.00 | 80 | 1010.7 |
| 20260506015833 | 50 | 134 | 5.0 | 12.0 | 0.00 | 0.00 | 0.00 | 80 | 1010.8 |
| 20260506014857 | 50 | 134 | 3.0 | 5.0 | 0.00 | 0.00 | 0.00 | 80 | 1010.8 |
| 20260506013832 | 50 | 270 | 3.0 | 5.0 | 0.00 | 0.00 | 0.00 | 80 | 1010.9 |
| 20260506012837 | 50 | 272 | 5.0 | 7.0 | 0.00 | 0.00 | 0.00 | 81 | 1010.9 |
| 20260506011832 | 49 | 274 | 4.0 | 6.0 | 0.00 | 0.00 | 0.00 | 81 | 1010.9 |
| 20260506010832 | 49 | 274 | 4.0 | 5.0 | 0.00 | 0.00 | 0.00 | 82 | 1011.0 |
| 20260506005832 | 49 | 274 | 2.0 | 4.0 | 0.00 | 0.00 | 0.00 | 82 | 1011.0 |
| 20260506004832 | 49 | 291 | 5.0 | 7.0 | 0.00 | 0.00 | 0.00 | 81 | 1011.1 |
| 20260506003833 | 49 | 98 | 3.0 | 5.0 | 0.00 | 0.00 | 0.00 | 81 | 1011.3 |
| 20260506002837 | 50 | 98 | 6.0 | 8.0 | 0.00 | 0.00 | 0.00 | 81 | 1011.3 |
| 20260506001832 | 49 | 270 | 3.0 | 5.0 | 0.00 | 0.00 | 0.00 | 82 | 1011.4 |
| 20260506000837 | 49 | 270 | 3.0 | 6.0 | 0.00 | 0.00 | 0.00 | 82 | 1011.4 |
| 20260505235838 | 49 | 270 | 5.0 | 9.0 | 0.00 | 0.00 | 0.00 | 82 | 1011.5 |
| 20260505234832 | 48 | 270 | 4.0 | 7.0 | 0.00 | 0.00 | 0.00 | 82 | 1011.4 |
| 20260505233833 | 48 | 285 | 5.0 | 7.0 | 0.00 | 0.00 | 0.00 | 81 | 1011.6 |
| 20260505232833 | 48 | 285 | 4.0 | 6.0 | 0.00 | 0.00 | 0.00 | 80 | 1011.6 |
| 20260505231853 | 48 | 330 | 5.0 | 8.0 | 0.00 | 0.00 | 0.00 | 80 | 1011.7 |
| 20260505230833 | 48 | 192 | 5.0 | 6.0 | 0.00 | 0.00 | 0.00 | 80 | 1011.8 |
| 20260505225853 | 48 | 271 | 4.0 | 7.0 | 0.00 | 0.00 | 0.00 | 79 | 1011.8 |
| 20260505224833 | 48 | 271 | 5.0 | 7.0 | 0.00 | 0.00 | 0.00 | 79 | 1011.8 |
| 20260505223833 | 49 | 271 | 4.0 | 6.0 | 0.00 | 0.00 | 0.00 | 78 | 1011.8 |
| 20260505222833 | 49 | 271 | 6.0 | 7.0 | 0.00 | 0.00 | 0.00 | 76 | 1011.9 |
| 20260505221833 | 50 | 271 | 6.0 | 7.0 | 0.00 | 0.00 | 0.00 | 75 | 1012.1 |
| 20260505220833 | 50 | 271 | 6.0 | 8.0 | 0.00 | 0.00 | 0.00 | 74 | 1012.1 |
| 20260505215833 | 50 | 271 | 4.0 | 6.0 | 0.00 | 0.00 | 0.00 | 74 | 1012.2 |
| 20260505214833 | 50 | 274 | 2.0 | 5.0 | 0.00 | 0.00 | 0.00 | 73 | 1012.2 |
| 20260505213839 | 50 | 336 | 3.0 | 7.0 | 0.00 | 0.00 | 0.00 | 73 | 1012.2 |
| 20260505212833 | 50 | 95 | 3.0 | 5.0 | 0.00 | 0.00 | 0.00 | 73 | 1012.3 |
| 20260505211833 | 51 | 95 | 4.0 | 9.0 | 0.00 | 0.00 | 0.00 | 71 | 1012.3 |
| 20260505210833 | 51 | 333 | 4.0 | 9.0 | 0.00 | 0.00 | 0.00 | 71 | 1012.3 |
| 20260505205833 | 51 | 347 | 8.0 | 11.0 | 0.00 | 0.00 | 0.00 | 71 | 1012.3 |
| 20260505204833 | 51 | 95 | 4.0 | 9.0 | 0.00 | 0.00 | 0.00 | 72 | 1012.4 |
| 20260505203833 | 51 | 295 | 2.0 | 4.0 | 0.00 | 0.00 | 0.00 | 73 | 1012.5 |